Погода в Ванаваре

Погода в Ванаваре : погода сейчас, прогноз погоды и архив. Всё, что Вы хотите узнать о погоде в Ванаваре!

Хотите узнать прогноз погоды в Ванаваре? Тогда Вам сюда: Погода в Ванаваре

Поиск расширенной информации на нашем сайте:

Другие новости

Новости СМИ2

Главная страница сайта

Новости сайта

03.07.2017

Напоминаем, что на нашем специализированном сайте Метеоцентр.Азия вы можете получить высокодетализированные автоматические прогнозы погоды по пунктам России, СНГ и мира в авиационном формате (включающие направление и скорость ветра, видимость, явления погоды, количество и форму облачности, нижнюю и верхнюю границу облачности).


Погода в Ванаваре - сегодня

Время (UTC), дата Ветер
(°,м/с) 
Видим.   Явления Облачность Т
(°С)
Тd
(°С)
f(%) Тe
(°С)
Pmin
(гПа)
dP
(гПа)
Po
(мм)
O2
(г/м3)
Тmin Tmax R s Состояние
почвы
09 21.02.18 320 (СЗ) 20000 м    4/1 600 м верхняя 
[Cu hum|Ci fib]
-15.9 -20.3 69 -16  1023.2  0.4  741  319           
12 21.02.18 тихо ()   20000 м    4/0 средняя, верхняя 
[Ac trans|Ci fib]
-25.2 -27 85 -25  1025  0.3  742  331    -14.6  0.0     
15 21.02.18 тихо ()   20000 м    ясно 
-31.8 -34.5 77 -32  1026  0.1  742  340           
18 21.02.18 тихо ()   20000 м    ясно 
-35.7 -38.9 72 -36  1026.5  -0.1  742  346           
21 21.02.18 тихо ()   20000 м    ясно 
-38.4 -42 69 -38  1027.1  0.1  742  350           
00 22.02.18 тихо ()   20000 м    ясно 
-40.4 -44.2 67 -40  1027  -0.4  741  353  -40.4      55  равномерный
сухой снег
100% 
03 22.02.18 тихо ()   20000 м    4/0 верхняя 
[Ci fib]
-32.5 -35.8 72 -33  1025.1  -0.6  741  341  -40.6         
06 22.02.18 220 (ЮЗ) 20000 м    10/4 1000 м средняя, верхняя 
[Sc|Ac trans|Ci fib]
-18.1 -23 65 -22  1021.6  -1.3  740  321           
09 22.02.18 240 (ЮЗ) 20000 м    10/3 1000 м верхняя 
[Sc|Ci fib]
-15 -20.8 61 -17  1020.4  -0.8  739  317           
12 22.02.18 250 (З) 20000 м  слаб. снег  10/0 средняя, верхняя 
[Ac trans|Cs]
-16.6 -19.7 77 -17  1020.7  0.1  740  319    -14.9  0.0     
15 22.02.18 210 (ЮЗ) 20000 м  слаб. снег  10/0 средняя 
[As op]
-18.1 -20.3 83 -18  1020.4  -0.4  739  321           
18 22.02.18 230 (ЮЗ) 20000 м  слаб. снег  10/5 1000 м средняя 
[Sc|As trans]
-18 -20.3 82 -21  1020.2  -0.2  739  320           
21 22.02.18 200 (Ю) 20000 м  {снег}  10/0 верхняя 
[Cs]
-21.6 -22.9 89 -22  1020.8  739  325           
00 23.02.18 230 (ЮЗ) 20000 м  {снег}  10/0 верхняя 
[Ci fib]
-29.3 -31.6 80 -30  1022.3  0.4  739  336  -29.3    0.2  55  равномерный
сухой снег
100% 
03 23.02.18 210 (ЮЗ) 20000 м    10/0 средняя, верхняя 
[Ac trans|Ci fib]
-23.2 -25.9 78 -24  1021.9  0.5  740  327  -30.3         
06 23.02.18 230 (ЮЗ) 20000 м    10/0 средняя, верхняя 
[Ac trans|Ci fib]
-14.1 -19.6 63 -16  1020.3  -0.4  739  316           
09 23.02.18 270 (З) 20000 м    10/0 средняя, верхняя 
[Ac trans|Cs]
-12 -17.8 62 -12  1020.1  0.1  740  313           
12 23.02.18 030 (СВ) 20000 м    10/0 средняя, верхняя 
[Ac trans|Cs]
-20.4 -21.5 91 -21  1022  0.7  740  324    -11.8       
15 23.02.18 тихо ()   20000 м    10/0 верхняя 
[Cs]
-27.4 -29.5 82 -27  1023.5  0.5  740  333           
18 23.02.18 тихо ()   20000 м    10/0 верхняя 
[Cs]
-32.3 -35.1 76 -32  1024.5  0.3  741  340           
21 23.02.18 тихо ()   20000 м    3/0 верхняя 
[Ci fib]
-35.1 -38.3 72 -35  1025.6  0.6  741  345           
00 24.02.18 тихо ()   20000 м  слаб. снег  10/8 1000 м средняя 
[Sc|As trans]
-32 -35 75 -32  1025.8  0.7  742  340  -35.3    0.0  55  равномерный
сухой снег
100% 
03 24.02.18 тихо ()   20000 м  слаб. снег  10/0 средняя, верхняя 
[Ac trans|Cs]
-25.2 -27.9 78 -25  1024.9  0.1  742  331           
06 24.02.18 тихо ()   20000 м  {снег}  10/1 1000 м средняя, верхняя 
[Cu hum|Ac trans|Cs]
-14.7 -19.8 65 -15  1023.2  -0.2  742  317           
09 24.02.18 050 (СВ) 20000 м    10/1 1000 м средняя, верхняя 
[Cu hum|Ac trans|Cs]
-12.6 -16.9 70 -15  1023.3  0.3  742  315           
Время (UTC), дата Ветер
(°,м/с) 
Видим.   Явления Облачность Т
(°С)
Тd
(°С)
f(%) Тe
(°С)
Pmin
(гПа)
dP
(гПа)
Po
(мм)
O2
(г/м3)
Тmin Tmax R s Состояние
почвы

Для получения пояснительной информации подведите курсор к названию столбца.

ПОГОДА в Ванаваре - архив

Всё, что Вы хотите узнать о погоде в Ванаваре - удобно и подробно!

Выберите нужную дату (начиная с 1 января 2015* года) и нажмите кнопку "Найти".
Будут отображены архивные сводки погоды по пункту Ванавара, начиная с указанной даты.


Отображать данные в формате CSV (для использования в таблицах Excel)


Внимание! Наш архив погоды предназначен исключительно для личного некоммерческого использования в познавательных целях. Если Вам необходимы официальные справки о состоянии погоды (для производственных, юридических, коммерческих и т.п. целей), обращайтесь в органы Росгидромета.

*Примечание: данная дата относится к архиву по метеостанциям СССР (Россия, СНГ, Балтия).
Архив по метеостанциям Зарубежной Европы и Азии (кроме Китая) хранится 10 дней, по другим регионам земного шара (Китай, Африка, Америка, Австралия, Океания) - 1 день.

Ванавара - район местоположения метеостанции


Название, широта, долгота, высота метеостанции:
Ванавара 60.3°ш. 102.3°д. 260 м над ур. моря [Российская Федерация]

Дополнительная информация

В oтличие oт бoльшинства пoгoдных сайтoв мы публикуем пoдрoбную метеoинфoрмацию в детальнoм прoфессиoнальнoм фoрмате.

Характеристики температуры и влажнoсти вoздуха измеряются на высoте 2 м в тени вдали oт зданий и деревьев.
Скoрoсть ветра измеряется на высoте 10 м (на урoвне рoста челoвека скoрoсть ветра ниже в 1.5-2 раза). Если метеoстанция нахoдится в гoрoде или в лесу, тo скoрoсть ветра занижена на 2-4 м/с пo сравнению с oткрытым местoм. Скoрoсть ветра над акватoриями крупных рек и oзёр, а также на вершинах хoлмoв на 2-5 м/с выше, чем в oбычных услoвиях.
Атмoсфернoе давление в разных тoчках местнoсти мoжет значительнo oтличаться oт давления на метеoстанции, в зависимoсти oт услoвий рельефа (при пoдъёме на 10 м давление пoнижается примернo на 1 мм рт.ст.).